Weather in Aginskoe

Russia / Zabaykalsky Krai     51°06′13″N   114°32′16″E
temp.,
°C
wind,
m/s
gust,
m/s
humid.,
%
clouds,
%
prec.,
mm/h
press.,
hPa
HPBL,
m
22 january, fri
fri2200:00−19wsw12830 0.0 102620
03:00−18wsw118331 0.0 102620
06:00−19wsw018262 0.0 102420
09:00−18ese118181 0.0 102420
12:00−15se237598 0.0 1023173
15:00−13ese226271 0.0 1020308
18:00−17ese12790 0.0 102020
21:00−19se12930 0.0 102120
23 january, sat
sat2300:00−19sse229350 0.0 102120
03:00−19sse239338 0.0 102023
06:00−19sse239365 0.0 101923
09:00−19sse128633 0.0 101920
12:00−14sse117120 0.0 101836
15:00−9sse126553 0.0 101774
18:00−12se1170100 0.0 101921
21:00−13sse117475 0.0 102121
24 january, sun
sun2400:00−14sse017897 0.0 102221
03:00−14nw018098 0.0 102321
06:00−14nw1283100 0.0 102420
09:00−14nw1185100 0.0 102620
12:00−12nne1185100 0.0 102676
15:00−11ne2288100 0.0 1025243
18:00−14ne1296100 0.1 102623
21:00−15ne3696100 0.2 1027249
25 january, mon
mon2500:00−16ene2596100 0.3 1027204
03:00−16ene2497100 0.3 1025210
06:00−17ene4796100 0.2 1022292
09:00−17ne4796100 1.4 1019339
12:00−18nne71096100 2.1 1017458
15:00−19n6894100 2.9 1015670
18:00−20nnw61095100 0.5 1016703
21:00−21nnw51094100 0.6 1017598
26 january, tue
tue2600:00−22nw3898100 0.1 1018257
03:00−22nw61194100 0.2 1019685
06:00−22nw71391100 0.1 10201026
09:00−21nw81489100 0.1 1021995
12:00−19nw101387100 0.1 10201177
15:00−19nw91382100 0.1 1020835
18:00−20wnw81487100 0.0 1021709
21:00−22wnw81685100 0.0 1023549